Location: Paris
(48.6709°N, 2.3750°E)
Time: 22:22:59
(UTC+02:00)

RS-44 - Visible Passes

Search period start: 26 June 2022 00:00
Search period end: 06 July 2022 00:00
Orbit: 1175 x 1509 km, 82.5° (Epoch: 26 June)

Date Brightness Start Highest point End Pass type
(mag) Time Alt. Az. Time Alt. Az. Time Alt. Az.
26 Jun ? 00:54:48 10° WSW 01:01:13 25° WNW 01:08:00 10° N visible
26 Jun ? 23:22:20 10° SSW 23:30:20 65° WNW 23:38:58 10° N visible
27 Jun ? 01:20:43 10° W 01:25:53 17° NW 01:31:16 10° N visible
27 Jun ? 23:46:43 10° SW 23:54:26 45° WNW 00:02:43 10° N visible
28 Jun ? 01:47:44 10° WNW 01:50:46 12° NW 01:53:52 10° NNW visible
29 Jun ? 00:11:33 10° WSW 00:18:43 32° WNW 00:26:21 10° N visible
29 Jun ? 22:40:04 10° S 22:48:14 84° W 22:57:02 10° N visible
30 Jun ? 00:36:57 10° WSW 00:43:14 23° NW 00:49:49 10° N visible
30 Jun ? 23:04:07 10° SSW 23:12:12 59° WNW 23:20:52 10° N visible
01 Jul ? 01:03:04 10° W 01:07:57 16° NW 01:13:00 10° NNW visible
01 Jul ? 23:28:37 10° SW 23:36:21 42° WNW 23:44:35 10° N visible
02 Jul ? 01:30:35 10° NW 01:32:55 11° NW 01:35:15 10° NNW visible
02 Jul ? 23:53:36 10° WSW 00:00:43 30° WNW 00:08:11 10° N visible
03 Jul ? 22:21:47 10° SSW 22:30:05 77° WNW 22:38:57 10° N visible
04 Jul ? 00:19:11 10° W 00:25:16 21° NW 00:31:37 10° N visible
04 Jul ? 22:45:58 10° SSW 22:54:06 54° WNW 23:02:46 10° N visible
05 Jul ? 00:45:32 10° WNW 00:50:03 15° NW 00:54:42 10° NNW visible
05 Jul ? 23:10:35 10° SW 23:18:18 38° WNW 23:26:27 10° N visible
